Location: Franzen
(48.6167°N, 15.3833°E)
Time: 14:26:08
(UTC+00:00)

Transit 2A Rocket - Pass Details

Date: 04 August 2021
Orbit: 586 x 917 km, 66.7° (Epoch: 27 September)

Event Time Altitude Azimuth Distance (km) Brightness Sun altitude
Rises 20:21:09 0° 325° (NW) 3,245 10.1 -15.0°
Reaches altitude 10° 20:23:29 10° 327° (NNW) 2,364 8.9 -15.2°
Maximum altitude 20:28:58 72° 53° (NE) 887 5.3 -15.8°
Enters shadow 20:32:29 25° 133° (SE) 1,684 6.2 -16.2°
